SVJC/LSP METAR and TAF weather

Enter ICAO airport designator
Station Type Date Time Source
SVJC METAR 2020/10/02 10:00 UTC NOAA

SVJC 021000Z NI CHECK TEXT NEW ENDING ADDED KATLYTAA


Station Type Date Time Source
SVJC Decoded METAR 2020/10/02 10:00 UTC NOAA

Paraguana / Josefa, Venezuela (SVJC) 11-47N 070-09W
Oct 02, 2020 - 06:00 AM EDT / 2020.10.02 1000 UTC
ob: SVJC 021000Z NI CHECK TEXT NEW ENDING ADDED KATLYTAA
cycle: 10

Station Type Date Time Source
SVJC TAF 2022/06/30 18:45 UTC NOAA

TAF TAF SVJC 301600Z 3018/0118 09005KT 9999 SCT016 TX32/3019Z TN24/0108Z
BECMG 3018/3022 06007KT 9999 SCT016

Example: see airport list